アトラス彗星

C/2020 M3 ( ATLAS )

English version
Home page
Updated on January 23, 2021

---------------------------------------------------------------------

・ プロフィール

発見日 2020年6月27日
発見光度 18.8等
発見者 Asteroid Terrestrial-Impact Last Alert System (ATLAS) search program

・ 写真集

・ 軌道要素

Epoch 2020 Nov. 7.0 TT = JDT 2459160.5
T 2020 Oct. 25.62319 TT                                 Rudenko
q   1.2682462            (2000.0)            P               Q
n   0.00709603     Peri.  328.44556     +0.72843781     -0.57193468
a  26.8200249      Node    71.25026     +0.68169332     +0.55013888
e   0.9527127      Incl.   23.47346     +0.06835623     +0.60847181
P 139
From 1007 observations 2020 June 27-Nov. 16, mean residual 1".2.

・ 星図

・ 光度変化

        m1 = 14.5 + 5 logΔ + 10.0 log r          [   ,-62]  (              〜2020年 8月24日)
        m1 =  8.3 + 5 logΔ + 15.0 log r(t - 10)  [-62,   ]  (2020年 8月24日〜              )

---------------------------------------------------------------------

軌道要素はM.P.E.C. 2020-W26に掲載されたものです。
星図はステラナビゲータ Ver.10 (アストロアーツ) で作成したものです。
光度グラフはComet for Windowsで作成したものです。

---------------------------------------------------------------------

Copyright(C) Seiichi Yoshida (comet@aerith.net). All rights reserved.